Tracking 18957 objects as of 21-Jan-2018
HD Live streaming from Space Station
objects crossing your sky now

KANOPUS-V-IK

Track KANOPUS-V-IK now!
10-day predictions


NORAD ID: 42825
Int'l Code: 2017-042A
Perigee: 515.4 km
Apogee: 518.0 km
Inclination: 97.4 °
Period: 94.8 minutes
Semi major axis: 6887 km
RCS: Unknown
Launch date: July 14, 2017
Source: Commonwealth of Independent States (former USSR) (CIS)
Launch site: TYURATAM MISSILE AND SPACE COMPLEX (TTMTR)
aabbcc
Your satellite tracking list
Your tracking list is empty




NASA's NSSDC Master Catalog

Two Line Element Set (TLE):
1 42825U 17042A   18021.79840994  .00000239  00000-0  14714-4 0  9992
2 42825  97.4317 293.2862 0001901  87.0172 273.1280 15.18779604 29082
Source of the keplerian elements: AFSPC